This demonstration page uses our WeatherBlox Daily Observations layout. Learn more.

Left ArrowRight Arrow

30.21309, -93.2044

Hourly Observations for April 7, 2022

Temp ( °F °C ) Dew Point ( °F °C ) Humidity (%) Winds ( mph kmh ) Pressure ( in mb ) Visibility ( mi km ) Precip ( " mm )
12:15 am 00:15 Clear 62 16.4 48 9 62 62 NNW 9 15 29.97 1015 10 16 0.00 0.00
12:35 am 00:35 Clear 61 16.1 48 8.8 62 62 N 7 11 29.97 1015 10 16 0.00 0.00
12:55 am 00:55 Clear 61 16.2 48 8.7 61 61 NNW 10 17 29.97 1015 10 16 0.00 0.00
1:15 am 01:15 Clear 61 15.9 47 8.6 62 62 NNW 10 17 29.98 1015 10 16 0.00 0.00
1:35 am 01:35 Clear 60 15.7 47 8.2 61 61 NNW 12 19 29.98 1015 10 16 0.00 0.00
1:55 am 01:55 Clear 60 15.6 46 7.8 60 60 N 9 15 29.99 1016 10 16 0.00 0.00
2:15 am 02:15 Clear 59 15.2 46 7.7 61 61 N 9 15 29.99 1016 10 16 0.00 0.00
2:35 am 02:35 Clear 59 14.8 46 7.5 62 62 N 8 13 29.99 1016 10 16 0.00 0.00
2:55 am 02:55 Clear 58 14.4 45 7.2 62 62 N 10 17 29.99 1016 10 16 0.00 0.00
3:15 am 03:15 Clear 58 14.5 44 6.9 61 61 N 9 15 29.99 1016 10 16 0.00 0.00
3:35 am 03:35 Clear 57 14 44 6.4 60 60 N 9 15 30.00 1016 10 16 0.00 0.00
3:55 am 03:55 Clear 57 13.8 42 5.7 58 58 N 9 15 30.00 1016 10 16 0.00 0.00
4:15 am 04:15 Clear 56 13.6 41 5 56 56 NNW 9 15 30.01 1016 10 16 0.00 0.00
4:35 am 04:35 Clear 56 13.1 41 4.8 57 57 NNW 8 13 30.01 1016 10 16 0.00 0.00
4:55 am 04:55 Clear 54 12.2 41 5 62 62 NNW 8 13 30.02 1017 10 16 0.00 0.00
5:15 am 05:15 Clear 53 11.5 41 4.8 64 64 NNW 8 13 30.02 1017 10 16 0.00 0.00
5:35 am 05:35 Clear 53 11.4 39 4.1 61 61 NNW 8 13 30.03 1017 10 16 0.00 0.00
6:00 am 06:00 Mostly Clear 52 11 39 4 62 62 ENE 115 185 30.03 1017 10 16 0.00 0.00
6:50 am 06:50 Mostly Clear 52 11 37 3 58 58 NW 8 13 30.06 1018 10 16 0.00 0.00
7:50 am 07:50 Mostly Sunny 54 12 37 3 54 54 NW 8 13 30.09 1019 10 16 0.00 0.00
8:45 am 08:45 Mostly Sunny 57 14 36 2 44 44 NW 14 22 30.12 1020 10 16 0.00 0.00
9:55 am 09:55 Mostly Sunny 63 17 36 2 37 37 NNW 15 24 30.12 1020 10 16 0.00 0.00
10:45 am 10:45 Mostly Sunny 64 18 32 0 30 30 NNW 17 28 30.13 1020 10 16 0.00 0.00
11:45 am 11:45 Mostly Sunny 66 19 30 -1 26 26 NNW 16 26 30.13 1020 10 16 0.00 0.00
12:53 pm 12:53 Mostly Sunny 70 21 32 0 25 25 NNW 20 31 30.10 1019 10 16 0.00 0.00
1:55 pm 13:55 Mostly Sunny 72 22 34 1 25 25 NNW 20 31 30.80 1043 10 16 0.00 0.00
2:45 pm 14:45 Mostly Sunny 73 23 27 -3 17 17 NW 21 33 30.05 1018 10 16 0.00 0.00
3:45 pm 15:45 Mostly Sunny 73 23 21 -6 14 14 NW 30 48 30.04 1017 10 16 0.00 0.00
4:55 pm 16:55 Mostly Sunny 73 23 27 -3 17 17 NW 24 39 30.03 1017 10 16 0.00 0.00
5:45 pm 17:45 Mostly Sunny 72 22 28 -2 20 20 NW 18 30 30.03 1017 10 16 0.00 0.00
6:50 pm 18:50 Mostly Sunny 70 21 25 -4 18 18 NNW 20 31 30.03 1017 10 16 0.00 0.00
7:45 pm 19:45 Mostly Clear 66 19 27 -3 22 22 NNW 14 22 30.05 1018 10 16 0.00 0.00
8:55 pm 20:55 Mostly Clear 64 18 23 -5 21 21 NNW 14 22 30.09 1019 10 16 0.00 0.00
9:45 pm 21:45 Mostly Clear 64 18 23 -5 21 21 NNW 12 19 30.12 1020 10 16 0.00 0.00
10:15 pm 22:15 Clear 60 15.8 26 -3.2 27 27 NW 7 11 30.13 1020 10 16 0.00 0.00
10:35 pm 22:35 Clear 60 15.8 27 -2.8 28 28 WNW 5 7 30.13 1020 10 16 0.00 0.00
10:55 pm 22:55 Clear 60 15.5 28 -2.4 29 29 WNW 7 11 30.13 1020 10 16 0.00 0.00
11:15 pm 23:15 Clear 57 13.8 29 -1.5 35 35 NW 7 11 30.12 1020 10 16 0.00 0.00
11:35 pm 23:35 Clear 58 14.3 29 -1.7 33 33 WNW 6 9 30.12 1020 10 16 0.00 0.00
11:55 pm 23:55 Clear 57 13.8 30 -1.3 36 36 WNW 7 11 30.12 1020 10 16 0.00 0.00

Powered by AerisWeather